São Tomé International Airport

Airport
ICAO code: 
FPST
IATA Code: 
TMS
Summary
ICAO Region: 
AFI
Location: 
São Tomé, São Tomé Island,
Serving: 
São Tomé
Elevation: 
33 ft
Coordinates: 
Aerial View: 
0° 22' 41.016" N, 6° 42' 43.992" E
Airport BS: 
Bird Strike
Metar
Observation
FPST 242200Z 17012KT 9999 FEW025CB BKN110 26/24 Q1015 NOSIG
Station
S. Tome
Date/Time
2022-05-24 22:00:00
Wind direction
170°
Wind speed
12 kts
Lowest cloud amount
few clouds
Temperature
26°C
Dew point
24°C
Humidity
88%
QNH
1015 hPa
Weather condition
n/a

International airport serving the islands of Sao Tome and Principe. There is no Stopway or RESA.

Climatology

Tropical Savanna climate (Köppen climate classification Aw)

Runways

Designator Length Width Surface Rops
11/29 2220 45 ASP No/No
Airport map: 
Aerial View: 

Accidents and Serious Incidents at or in the vicinity of FPST

SKYbrary Partners:

Safety knowledge contributed by: